Precipitable_Water
0.47 0.43 0.40 0.38 0.38 0.39 0.38 0.40 0.35 0.36 0.37 0.43 0.44 0.45 0.44 0.41 0.40 0.38 0.37 0.36 0.35 0.35 0.35 0.34 0.34 0.35 0.37 0.39 0.44 0.48 0.46 0.47 0.50 0.52 0.54 0.54 0.56 0.58 0.60 0.61 0.61 0.62 0.62 0.65
0.42 0.45 0.41 0.37 0.38 0.37 0.37 0.38 0.37 0.38 0.37 0.45 0.46 0.44 0.40 0.38 0.37 0.36 0.35 0.34 0.35 0.33 0.32 0.32 0.34 0.35 0.38 0.41 0.43 0.48 0.47 0.48 0.51 0.54 0.55 0.55 0.57 0.59 0.60 0.62 0.64 0.64 0.64 0.63
0.36 0.45 0.41 0.34 0.36 0.36 0.37 0.38 0.37 0.31 0.37 0.41 0.38 0.37 0.35 0.36 0.36 0.34 0.33 0.34 0.31 0.30 0.30 0.31 0.32 0.37 0.39 0.43 0.46 0.48 0.49 0.51 0.53 0.55 0.56 0.58 0.59 0.59 0.60 0.61 0.63 0.62 0.63 0.63
0.35 0.37 0.26 0.34 0.38 0.40 0.37 0.38 0.39 0.38 0.38 0.38 0.37 0.34 0.36 0.37 0.35 0.31 0.32 0.30 0.29 0.30 0.31 0.31 0.33 0.35 0.43 0.47 0.46 0.48 0.52 0.55 0.58 0.58 0.58 0.60 0.60 0.60 0.57 0.57 0.55 0.54 0.56 0.58
0.32 0.31 0.34 0.32 0.31 0.35 0.34 0.33 0.38 0.37 0.39 0.38 0.36 0.37 0.34 0.32 0.29 0.28 0.28 0.29 0.29 0.30 0.30 0.31 0.32 0.36 0.41 0.46 0.48 0.49 0.52 0.57 0.60 0.61 0.60 0.61 0.58 0.53 0.50 0.46 0.45 0.46 0.49 0.50
0.35 0.29 0.24 0.31 0.32 0.35 0.35 0.25 0.31 0.36 0.34 0.31 0.29 0.23 0.23 0.31 0.29 0.28 0.28 0.28 0.28 0.29 0.30 0.29 0.31 0.35 0.39 0.45 0.49 0.49 0.56 0.62 0.65 0.63 0.62 0.55 0.51 0.46 0.44 0.42 0.42 0.43 0.42 0.44
0.33 0.30 0.32 0.34 0.33 0.31 0.23 0.26 0.30 0.28 0.26 0.26 0.24 0.25 0.30 0.33 0.29 0.29 0.30 0.30 0.32 0.31 0.31 0.30 0.31 0.33 0.35 0.43 0.50 0.58 0.63 0.65 0.64 0.63 0.57 0.51 0.45 0.42 0.40 0.40 0.41 0.40 0.41 0.43
0.33 0.29 0.26 0.37 0.32 0.27 0.30 0.32 0.29 0.26 0.27 0.26 0.26 0.27 0.27 0.28 0.28 0.29 0.30 0.32 0.33 0.32 0.32 0.34 0.33 0.32 0.32 0.40 0.54 0.60 0.64 0.62 0.61 0.56 0.50 0.46 0.41 0.40 0.39 0.40 0.40 0.40 0.39 0.39
0.35 0.33 0.38 0.37 0.34 0.34 0.32 0.29 0.27 0.24 0.25 0.26 0.25 0.25 0.26 0.26 0.26 0.28 0.31 0.32 0.34 0.34 0.35 0.36 0.37 0.34 0.32 0.36 0.51 0.57 0.58 0.57 0.54 0.50 0.45 0.42 0.39 0.37 0.38 0.40 0.39 0.39 0.39 0.39
0.36 0.34 0.33 0.34 0.36 0.34 0.30 0.27 0.26 0.25 0.23 0.23 0.21 0.21 0.21 0.21 0.20 0.22 0.28 0.31 0.33 0.33 0.33 0.33 0.38 0.39 0.38 0.41 0.42 0.53 0.49 0.47 0.43 0.39 0.38 0.38 0.38 0.39 0.39 0.38 0.38 0.38 0.37 0.38
0.30 0.30 0.30 0.29 0.29 0.29 0.29 0.26 0.22 0.22 0.21 0.20 0.20 0.19 0.20 0.19 0.20 0.22 0.26 0.28 0.30 0.30 0.31 0.33 0.36 0.38 0.40 0.42 0.44 0.41 0.43 0.39 0.37 0.36 0.35 0.34 0.37 0.38 0.38 0.40 0.40 0.38 0.38 0.39
0.26 0.27 0.22 0.23 0.26 0.27 0.23 0.19 0.19 0.19 0.19 0.19 0.19 0.20 0.21 0.21 0.24 0.27 0.28 0.30 0.31 0.31 0.32 0.33 0.36 0.38 0.39 0.42 0.46 0.36 0.37 0.33 0.33 0.35 0.36 0.35 0.34 0.35 0.39 0.40 0.40 0.42 0.42 0.42
0.21 0.24 0.20 0.22 0.20 0.19 0.17 0.18 0.20 0.21 0.22 0.24 0.27 0.28 0.30 0.31 0.34 0.36 0.37 0.38 0.39 0.37 0.37 0.36 0.36 0.37 0.40 0.44 0.49 0.39 0.35 0.37 0.34 0.35 0.34 0.32 0.32 0.32 0.31 0.36 0.38 0.39 0.40 0.42
0.22 0.19 0.16 0.16 0.17 0.21 0.22 0.24 0.29 0.32 0.33 0.33 0.34 0.34 0.33 0.33 0.34 0.34 0.35 0.37 0.40 0.38 0.37 0.38 0.38 0.39 0.45 0.48 0.50 0.42 0.38 0.38 0.38 0.36 0.35 0.34 0.33 0.32 0.33 0.32 0.31 0.33 0.38 0.39
0.17 0.17 0.19 0.22 0.26 0.28 0.30 0.31 0.29 0.30 0.31 0.31 0.34 0.34 0.34 0.32 0.31 0.32 0.33 0.35 0.36 0.36 0.35 0.36 0.36 0.37 0.44 0.48 0.50 0.46 0.43 0.40 0.40 0.40 0.38 0.36 0.34 0.34 0.34 0.34 0.33 0.34 0.35 0.37
0.20 0.21 0.24 0.26 0.27 0.28 0.30 0.31 0.29 0.28 0.29 0.29 0.29 0.30 0.32 0.33 0.33 0.33 0.32 0.32 0.32 0.33 0.35 0.35 0.36 0.41 0.45 0.46 0.48 0.48 0.48 0.46 0.43 0.41 0.39 0.37 0.35 0.33 0.33 0.34 0.34 0.33 0.33 0.34
0.23 0.23 0.26 0.26 0.27 0.29 0.29 0.30 0.28 0.27 0.27 0.27 0.28 0.31 0.33 0.32 0.31 0.29 0.31 0.33 0.34 0.33 0.36 0.39 0.40 0.43 0.44 0.45 0.46 0.46 0.48 0.47 0.45 0.43 0.39 0.38 0.37 0.34 0.32 0.32 0.33 0.33 0.33 0.35
0.30 0.31 0.31 0.31 0.29 0.29 0.29 0.27 0.27 0.27 0.27 0.28 0.29 0.30 0.31 0.30 0.29 0.30 0.33 0.36 0.36 0.36 0.39 0.42 0.43 0.43 0.43 0.43 0.46 0.48 0.46 0.48 0.47 0.44 0.41 0.39 0.37 0.35 0.32 0.31 0.32 0.33 0.34 0.35
0.31 0.30 0.31 0.32 0.31 0.29 0.27 0.26 0.27 0.28 0.28 0.29 0.28 0.29 0.31 0.31 0.31 0.33 0.35 0.35 0.35 0.35 0.37 0.44 0.45 0.44 0.43 0.42 0.44 0.48 0.46 0.47 0.46 0.46 0.43 0.40 0.39 0.37 0.33 0.31 0.32 0.33 0.34 0.34
0.32 0.33 0.32 0.31 0.30 0.27 0.25 0.27 0.27 0.28 0.29 0.29 0.29 0.30 0.30 0.31 0.32 0.34 0.36 0.35 0.38 0.40 0.43 0.45 0.47 0.45 0.44 0.43 0.43 0.45 0.45 0.44 0.45 0.43 0.42 0.40 0.39 0.37 0.35 0.33 0.32 0.33 0.35 0.35
0.33 0.32 0.31 0.29 0.27 0.27 0.27 0.28 0.27 0.26 0.28 0.30 0.29 0.29 0.30 0.32 0.34 0.36 0.35 0.35 0.40 0.45 0.46 0.48 0.48 0.48 0.47 0.45 0.43 0.43 0.43 0.44 0.44 0.43 0.39 0.39 0.38 0.37 0.35 0.33 0.33 0.34 0.34 0.36
0.31 0.29 0.28 0.28 0.27 0.27 0.28 0.27 0.27 0.27 0.27 0.29 0.31 0.32 0.32 0.32 0.35 0.37 0.40 0.39 0.43 0.46 0.46 0.47 0.48 0.48 0.47 0.45 0.44 0.43 0.43 0.42 0.42 0.42 0.40 0.40 0.38 0.36 0.33 0.33 0.33 0.34 0.35 0.36
0.29 0.28 0.28 0.27 0.26 0.26 0.27 0.27 0.28 0.28 0.28 0.29 0.31 0.33 0.33 0.34 0.36 0.36 0.35 0.44 0.45 0.47 0.46 0.47 0.48 0.47 0.45 0.40 0.40 0.42 0.42 0.42 0.41 0.41 0.42 0.41 0.38 0.35 0.33 0.33 0.34 0.36 0.36 0.36
0.28 0.28 0.27 0.28 0.28 0.27 0.26 0.28 0.29 0.29 0.30 0.31 0.33 0.35 0.35 0.35 0.37 0.42 0.44 0.45 0.45 0.46 0.46 0.46 0.47 0.47 0.44 0.39 0.39 0.40 0.40 0.40 0.41 0.41 0.40 0.38 0.36 0.34 0.34 0.35 0.36 0.36 0.36 0.35
0.28 0.28 0.28 0.27 0.26 0.27 0.28 0.30 0.30 0.30 0.31 0.31 0.33 0.35 0.37 0.39 0.38 0.41 0.43 0.44 0.45 0.45 0.44 0.45 0.46 0.46 0.45 0.40 0.38 0.38 0.39 0.39 0.39 0.39 0.37 0.35 0.35 0.36 0.36 0.37 0.37 0.37 0.33 0.27
0.28 0.28 0.28 0.28 0.29 0.30 0.31 0.32 0.30 0.31 0.31 0.31 0.33 0.35 0.37 0.39 0.40 0.42 0.43 0.43 0.44 0.44 0.43 0.43 0.44 0.45 0.44 0.44 0.42 0.41 0.39 0.39 0.38 0.38 0.38 0.38 0.39 0.39 0.38 0.37 0.34 0.29 0.26 0.26
0.28 0.28 0.28 0.28 0.30 0.31 0.32 0.32 0.31 0.31 0.32 0.32 0.32 0.35 0.36 0.38 0.39 0.40 0.41 0.42 0.42 0.43 0.42 0.42 0.42 0.43 0.43 0.43 0.42 0.42 0.42 0.42 0.42 0.41 0.41 0.40 0.40 0.38 0.34 0.31 0.29 0.28 0.28 0.28
Wind_Speed
32 27 26 26 32 33 38 38 33 31 34 28 29 29 27 27 28 30 32 33 34 35 36 37 39 41 43 44 45 45 45 43 42 41 41 40 41 41 40 39 38 34 29 27
32 29 26 28 30 32 35 35 37 36 31 23 24 25 28 29 31 32 32 33 33 35 37 38 40 42 43 44 44 43 42 40 39 39 38 37 36 34 32 27 21 19 17 17
23 25 25 30 35 33 32 35 34 34 30 27 27 28 29 29 29 31 32 32 34 35 37 39 40 42 42 43 42 40 38 37 36 34 33 31 29 24 19 15 14 13 11 10
20 20 25 24 23 31 33 33 34 32 27 27 28 28 29 29 31 31 31 32 33 35 37 38 40 41 41 40 40 38 36 34 32 29 26 23 18 14 11 11 11 10 8 9
23 28 24 27 24 24 28 32 33 32 31 29 27 28 30 29 29 29 31 33 34 35 37 38 39 40 39 39 37 35 33 30 26 21 17 14 11 10 10 9 9 9 8 7
25 25 27 24 23 22 23 29 27 28 27 27 25 27 27 26 27 30 32 33 34 36 36 37 37 37 37 36 34 31 27 22 17 15 14 12 10 9 8 8 7 7 7 7
28 28 27 25 22 20 21 20 19 22 24 25 26 27 26 29 31 32 34 35 36 36 36 35 35 35 34 32 28 24 19 17 17 15 13 12 11 9 8 6 6 7 7 8
27 27 28 23 22 23 20 19 18 20 21 24 26 28 29 31 32 34 35 36 37 37 36 35 33 32 29 27 24 20 19 17 17 15 14 13 12 9 9 8 7 7 8 9
28 25 21 24 20 20 19 19 20 21 24 27 29 31 32 33 34 34 35 35 36 36 35 34 32 28 25 22 19 20 18 18 16 16 15 14 13 11 9 9 9 9 9 10
24 25 24 26 21 22 22 22 22 24 27 29 31 33 34 35 36 36 36 35 35 35 34 32 30 26 24 20 17 17 20 19 19 17 16 15 14 12 11 10 10 10 10 11
22 21 20 23 24 23 23 24 25 27 28 29 31 32 34 34 34 34 33 32 33 32 31 29 27 27 25 22 19 17 18 19 20 19 17 16 15 14 13 11 11 11 12 12
23 23 22 23 24 25 25 25 25 26 27 28 30 30 30 30 30 30 30 29 28 27 26 27 27 27 26 24 23 19 18 21 21 20 19 17 15 14 13 13 13 12 12 12
19 19 20 19 21 22 23 24 24 24 25 26 27 28 28 28 28 27 28 27 27 26 26 26 26 25 25 26 25 23 21 20 22 21 20 18 17 15 14 13 12 12 12 12
19 19 19 20 19 20 20 20 19 21 22 23 24 25 26 26 26 25 25 25 24 23 23 23 24 25 26 24 25 25 23 21 23 22 21 20 18 17 16 15 13 12 12 12
19 19 16 16 16 16 16 16 18 19 20 22 23 24 23 24 24 24 22 21 21 22 23 23 23 23 23 25 25 28 24 22 22 23 21 20 18 18 17 16 14 13 11 10
17 16 16 15 14 14 14 16 17 19 20 21 22 22 23 22 22 21 20 21 21 21 21 22 23 22 22 23 26 28 28 24 23 22 21 19 17 17 17 16 15 13 12 11
15 15 14 14 13 13 14 16 17 18 19 19 20 20 19 20 20 19 19 20 21 22 22 21 22 21 20 22 27 29 27 26 26 23 23 20 17 17 17 15 15 14 13 12
14 13 13 12 12 13 14 15 16 17 18 18 19 18 18 17 17 18 19 19 20 20 19 19 18 19 19 20 25 29 30 27 28 25 23 21 19 17 16 15 15 15 14 13
14 13 12 11 12 13 13 14 15 16 17 17 17 18 17 17 17 18 18 18 18 17 16 16 16 16 16 16 21 26 28 27 25 26 27 24 21 19 17 16 16 15 15 14
13 12 12 11 11 11 12 12 14 15 16 17 17 17 17 17 17 17 17 16 17 16 15 15 15 14 14 13 16 23 26 26 24 23 23 23 21 20 19 18 17 17 16 15
14 13 12 12 11 12 12 14 15 16 17 17 17 17 17 16 16 16 16 15 14 13 13 13 14 13 13 13 15 20 25 24 24 24 22 22 21 20 20 19 18 17 17 16
13 12 12 12 13 14 15 16 17 17 17 17 16 15 15 15 15 15 14 14 13 13 12 13 13 13 12 12 14 17 24 27 26 24 23 21 21 20 20 20 20 19 17 17
12 13 13 14 15 16 17 17 17 16 16 16 15 15 15 14 14 13 12 11 11 11 11 12 11 9 8 7 8 14 16 22 23 23 24 24 23 22 21 22 21 19 18 17
13 13 13 15 16 16 17 16 16 15 15 15 14 14 14 13 13 12 12 12 11 10 10 10 8 6 5 4 6 10 15 15 18 17 17 18 18 18 18 18 19 18 17 16
14 14 14 15 15 15 14 14 14 13 13 13 13 13 13 12 12 12 11 11 10 9 8 8 7 6 5 4 6 9 12 14 14 15 15 15 15 15 15 16 16 16 16 16
12 12 12 11 11 12 12 11 11 11 11 11 11 12 11 11 10 10 10 10 9 8 6 6 5 5 6 7 7 8 10 11 12 13 13 13 13 14 14 15 15 15 15 15
11 11 9 9 8 8 8 9 8 9 9 10 10 10 10 9 9 10 9 9 9 8 7 5 4 4 5 6 7 8 9 10 11 11 12 12 12 13 13 13 14 14 14 15
Wind_Direction
251 251 250 246 238 237 238 244 246 259 255 253 250 250 255 263 269 276 279 281 284 287 289 291 292 293 293 294 294 294 292 289 287 287 288 289 290 291 291 291 292 290 285 282
247 242 248 248 247 240 242 245 252 255 259 262 252 256 261 267 272 275 279 283 286 289 291 293 294 294 294 294 294 293 289 288 287 287 288 289 289 291 292 292 289 294 288 287
248 237 249 256 244 244 244 246 250 253 256 253 255 260 263 268 271 277 280 283 287 290 293 294 295 294 293 294 293 292 290 288 287 286 285 287 288 288 283 283 287 295 294 294
239 232 245 256 260 243 246 247 249 256 256 256 259 262 265 270 274 277 280 283 287 290 292 295 295 295 294 294 293 290 289 288 284 283 282 281 278 273 272 274 283 286 288 293
239 239 259 253 251 246 242 251 250 252 253 255 260 264 269 270 273 277 281 284 286 289 292 294 297 298 295 294 291 288 287 284 278 275 270 263 257 258 263 272 280 285 287 291
237 243 248 263 243 247 249 259 251 249 253 252 256 264 271 269 277 280 282 283 285 289 291 294 298 300 296 293 290 285 283 274 261 258 250 243 242 247 259 268 270 281 289 292
240 248 257 250 237 238 246 258 253 248 252 255 260 269 273 277 280 281 281 283 285 288 290 293 297 299 298 294 285 277 271 258 253 247 238 231 235 246 253 268 269 278 291 296
242 245 250 233 230 241 250 250 252 255 257 261 267 272 276 279 280 281 283 282 284 286 287 290 292 296 299 294 283 267 259 252 244 237 230 228 234 245 256 264 271 280 286 297
235 244 244 230 245 243 246 248 256 260 266 270 273 275 278 280 282 282 284 284 285 285 285 286 286 289 294 296 285 257 253 244 234 230 229 229 236 244 252 262 271 280 286 290
237 241 239 232 243 242 248 256 263 269 272 275 276 278 279 280 282 283 283 284 284 285 284 283 282 281 284 286 279 263 245 238 233 230 231 235 240 245 251 261 267 278 283 289
237 230 233 237 240 246 253 264 271 273 275 277 279 279 280 282 283 284 284 285 284 283 282 281 280 276 274 275 269 261 246 235 229 230 232 234 239 244 253 261 268 277 282 288
238 230 241 239 244 253 260 266 270 273 275 278 279 281 282 283 283 284 284 284 283 283 282 280 278 274 269 266 258 254 248 233 228 229 231 235 241 245 252 261 270 278 283 286
235 229 240 243 250 256 262 268 271 273 276 279 280 282 282 283 283 284 282 281 280 281 281 280 279 277 269 259 249 246 242 236 228 229 231 236 242 245 249 257 268 275 280 283
233 237 244 247 255 260 264 267 268 274 279 282 283 283 283 281 281 282 282 280 279 279 281 282 279 276 266 257 246 237 235 233 229 230 233 238 242 246 248 252 260 270 277 280
233 237 241 246 252 254 257 262 271 276 282 286 287 285 282 281 281 281 281 279 277 277 279 280 281 276 270 251 243 229 230 231 230 231 234 238 241 244 246 250 254 259 267 272
228 233 236 239 243 249 258 266 275 281 285 288 288 285 281 280 281 280 279 279 278 278 282 280 280 275 269 253 238 230 228 232 229 228 230 233 240 242 242 244 248 252 256 258
219 221 227 233 240 252 265 275 280 283 286 288 290 288 282 281 280 278 279 281 281 282 282 280 281 274 270 256 237 229 228 229 227 228 231 231 235 236 240 242 244 248 251 252
218 220 223 234 247 262 273 280 284 286 287 289 291 287 283 278 276 280 282 284 285 284 279 281 282 278 271 261 237 229 226 227 227 224 225 227 232 233 236 241 243 244 248 250
212 216 228 243 256 266 275 281 287 290 291 291 289 286 283 277 277 282 284 284 287 285 282 283 285 283 275 265 237 224 222 222 225 225 224 225 230 233 235 240 243 243 247 249
214 225 233 244 257 266 275 283 291 293 295 295 291 288 285 278 277 281 281 282 285 282 281 287 289 284 277 267 240 224 220 217 219 215 214 220 225 231 237 241 242 244 246 248
218 225 235 245 258 269 278 286 291 295 298 297 293 291 286 279 278 280 277 280 286 283 281 285 288 287 279 267 244 226 216 214 213 212 217 223 226 232 237 240 242 242 245 247
220 228 240 253 263 273 281 288 292 291 295 298 294 290 287 281 278 278 273 272 281 286 281 287 289 286 282 271 245 226 217 215 217 218 220 225 230 237 239 239 239 240 244 246
230 239 251 263 271 277 284 289 287 287 291 294 292 291 288 282 275 275 272 273 279 284 284 291 291 282 278 276 232 213 207 207 213 222 225 230 236 240 242 239 237 237 239 237
238 250 262 270 276 280 285 286 286 284 287 289 290 288 289 281 273 266 268 271 275 279 282 291 287 268 262 247 208 194 196 204 205 211 219 224 231 235 235 227 225 229 232 234
247 256 267 274 277 279 282 281 282 281 286 288 289 290 288 280 267 267 269 266 264 273 279 284 276 251 239 221 201 197 198 204 210 218 222 224 224 221 217 217 222 228 232 233
249 255 264 274 279 280 279 278 277 279 284 290 293 294 286 279 270 263 261 259 256 261 269 276 266 246 230 220 209 201 202 206 211 214 214 214 213 214 217 221 226 228 230 233
244 253 257 269 278 282 281 276 276 281 287 295 299 298 290 279 271 262 258 252 247 249 254 259 252 238 218 213 211 212 212 211 208 206 206 207 211 216 222 227 229 230 232 236